This is the latest recevied weather packets stored in our database for station/object KTPF. If no packets are shown the sender has not sent any weather packets the latest 10 day(s).
| Time | Temp. | Humidity | Pressure | Rain* | Wind** | Luminosity | Snow |
|---|---|---|---|---|---|---|---|
| 1777754623 | 21.67° C | 100% | 1010.5 hPa | - | - | - | - |
| 1777754025 | 21.67° C | 100% | 1011.2 hPa | - | - | - | - |
| 1777753422 | 21.67° C | 100% | 1011.2 hPa | - | - | - | - |
| 1777752826 | 20.56° C | 100% | 1010.8 hPa | - | - | - | - |
| 1777752223 | 20.56° C | 100% | 1010.8 hPa | - | - | - | - |
| 1777751624 | 20.56° C | 94% | 1010.8 hPa | - | - | - | - |
| 1777751023 | 20.56° C | 94% | 1011.9 hPa | - | - | - | - |
| 1777750422 | 26.67° C | 83% | 1012.2 hPa | - | - | - | - |
| 1777749827 | 26.67° C | 83% | 1012.2 hPa | - | - | - | - |
| 1777749222 | 26.67° C | 88% | 1011.2 hPa | - | - | - | - |
| 1777748624 | 26.67° C | 88% | 1011.2 hPa | - | - | - | - |
| 1777748023 | 26.67° C | 83% | 1011.2 hPa | - | - | - | - |
| 1777747421 | 26.67° C | 83% | 1011.2 hPa | - | - | - | - |
| 1777746823 | 26.67° C | 83% | 1011.2 hPa | - | - | - | - |
| 1777746223 | 26.67° C | 83% | 1011.2 hPa | - | - | - | - |
| 1777745621 | 27.78° C | 78% | 1011.5 hPa | - | - | - | - |
| 1777745024 | 27.78° C | 78% | 1011.5 hPa | - | - | - | - |
| 1777744424 | 27.78° C | 78% | 1011.5 hPa | - | - | - | - |
| 1777743821 | 27.78° C | 78% | 1011.5 hPa | - | - | - | - |
| 1777743222 | 27.78° C | 78% | 1011.5 hPa | - | - | - | - |
| 1777742625 | 27.78° C | 78% | 1011.5 hPa | - | - | - | - |
| 1777742020 | 27.78° C | 78% | 1011.5 hPa | - | - | - | - |
| 1777741424 | 27.78° C | 78% | 1011.5 hPa | - | - | - | - |
| 1777740826 | 28.89° C | 74% | 1011.5 hPa | - | - | - | - |
| 1777740225 | 28.89° C | 74% | 1011.5 hPa | - | - | - | - |
* Rain since midnight (hover to see other rain measurements)
** Current wind speed in m/s (hover to see current wind gust speed)